Miscellaneous Local Product
Issued by NWS Hastings, NE

Home | Current Version | Previous Version | Text Only | Print | Product List | Glossary On
Versions: 1 2 3 4 5 6 7 8 9 10 11 12 13 14 15 16 17 18 19 20 21 22 23 24 25 26 27 28 29 30 31 32 33 34 35 36 37 38 39 40 41 42 43 44 45 46 47 48 49 50
000
AXUS43 KGID 021302
MISGRI

GID CWA HOURLY WEATHER ROUNDUP
NATIONAL WEATHER SERVICE HASTINGS NE
800 AM CDT THU OCT 02 2014

NOTE: "FAIR" INDICATES FEW OR NO CLOUDS BELOW 12,000 FEET WITH NO
SIGNIFICANT WEATHER AND/OR OBSTRUCTIONS TO VISIBILITY.

...SOUTH CENTRAL NEBRASKA...

CITY           SKY/WX    TMP DP  RH WIND       PRES   REMARKS
GRAND ISLAND   CLOUDY    54  51  90 NW8       29.92R
HASTINGS       RAIN      53  49  86 NW14      29.92R
KEARNEY        CLOUDY    52  48  87 NW13      29.95R
ORD            CLOUDY    52  50  93 N9        29.93R
YORK           LGT RAIN  54  52  94 N15G26    29.86F
AURORA         CLOUDY    54  52  94 N9        29.88R
LEXINGTON      CLOUDY    52  50  93 NW9       29.98R
HOLDREGE       CLOUDY    51  49  92 N10G17    29.94R
HEBRON         CLOUDY    55  52  90 NW12      29.90R

...NEBRASKA PANHANDLE...

CITY           SKY/WX    TMP DP  RH WIND       PRES   REMARKS
CHADRON        CLEAR     39  37  92 SW9       30.05S WCI  33
ALLIANCE       CLEAR     34  33  96 W7        30.05S WCI  28
SCOTTSBLUFF    CLEAR     37  37 100 NW6       30.09S WCI  32
SIDNEY         CLEAR     40  37  89 NW12      30.09R WCI  33

...WESTERN AND NORTH CENTRAL NEBRASKA...

CITY           SKY/WX    TMP DP  RH WIND       PRES   REMARKS
VALENTINE      PTCLDY    45  43  93 NW8       29.98S
AINSWORTH      PTCLDY    47  46  97 W7        29.98R
ONEILL         CLOUDY    52  52  99 N7        29.95R
BROKEN BOW     CLOUDY    52  49  89 N15       29.96R
IMPERIAL       CLEAR     46  43  89 NW12      30.04R
NORTH PLATTE   MOCLDY    48  45  89 NW10      30.00R
MCCOOK         CLOUDY    50  48  93 NW12      30.00R

...EASTERN NEBRASKA...

CITY           SKY/WX    TMP DP  RH WIND       PRES   REMARKS
NORFOLK        LGT RAIN  54  52  93 NW10      29.89R
SO SIOUX CITY  LGT RAIN  55  53  93 N15G23    29.85F
TEKAMAH        CLOUDY    57  54  89 N13       29.83R
COLUMBUS       CLOUDY    54  48  82 NW12      29.90R
ALBION         CLOUDY    52  50  92 N9        29.89S
OMAHA EPPLEY   CLOUDY    59  56  89 N14       29.79S
OFFUTT AFB     CLOUDY    64  64 100 N15       29.78R FOG
MILLARD        CLOUDY    60  56  88 N8        29.79S
LINCOLN        CLOUDY    58  54  86 NW15      29.85R
NEBRASKA CITY  CLOUDY    64  64 100 E10       29.76F FOG
BEATRICE       CLOUDY    58  56  93 N15G22    29.82R
FALLS CITY     LGT RAIN  65  63  93 E8        29.76S

...NORTHERN KANSAS...

CITY           SKY/WX    TMP DP  RH WIND       PRES   REMARKS
GOODLAND       CLEAR     45  44  97 NW14      30.05R
HILL CITY      CLOUDY    53  50  89 N14       29.96R
NORTON         CLOUDY    54  48  82 NW12      29.96R
PHILLIPSBURG   RAIN      55  55 100 NW12G22   29.91S
SMITH CENTER   DRIZZLE   52  52 100 N13       29.90S
BELOIT         CLOUDY    55  55 100 N18G24    29.85F
HAYS           CLOUDY    54  46  76 N20       29.89R
RUSSELL        TSTM      55  52  89 N13       29.88R
CONCORDIA      RAIN      55  54  96 N23G35    29.85F
SALINA         CLOUDY    61  56  83 NW20G31   29.83R
TOPEKA         CLOUDY    67  66  97 N3        29.74S



USA.gov is the U.S. government's official web portal to all federal, state and local government web resources and services.